,,,PA_Meas_PMT16A,,PR_Meas_QMR101_102,,RH_Meas_QMH101,,SR_Meas_QMS101,,TA_Meas_QMH101,,GenWind,,GenWind,
date,time,status,PA,status,PR,status,RH,status,SR,status,TA,status,DirAvg,status,SpdAvg,
2012-10-19, 00:00:04,VALID,1010.6,VALID,0,VALID,104,VALID,0,VALID,23.0103,VALID,38,VALID,0.653906,
2012-10-19, 00:01:04,VALID,1010.58,VALID,0,VALID,104,VALID,0,VALID,22.9926,VALID,38,VALID,0.630469,
2012-10-19, 00:02:04,VALID,1010.56,VALID,0,VALID,104,VALID,0,VALID,22.9926,VALID,38,VALID,0.448047,
2012-10-19, 00:03:04,VALID,1010.55,VALID,0,VALID,104,VALID,0,VALID,22.9714,VALID,38,VALID,0.184375,
2012-10-19, 00:04:04,VALID,1010.52,VALID,0,VALID,104,VALID,0,VALID,22.9519,VALID,38,VALID,0.105469,
2012-10-19, 00:05:04,VALID,1010.49,VALID,0,VALID,104,VALID,0,VALID,22.9909,VALID,38,VALID,0.00820312,
2012-10-19, 00:06:04,VALID,1010.44,VALID,0,VALID,104,VALID,0.112112,VALID,22.9714,VALID,38,VALID,0.374609,
2012-10-19, 00:07:04,VALID,1010.41,VALID,0,VALID,104,VALID,0.112112,VALID,22.9519,VALID,38,VALID,0.502734,
2012-10-19, 00:08:04,VALID,1010.35,VALID,0,VALID,104,VALID,0,VALID,22.9926,VALID,38,VALID,0.157422,
2012-10-19, 00:09:04,VALID,1010.32,VALID,0,VALID,104,VALID,0.112112,VALID,22.9519,VALID,38,VALID,0.0445312,
2012-10-19, 00:10:04,VALID,1010.29,VALID,0,VALID,104,VALID,0,VALID,22.9731,VALID,38,VALID,0.315234,
2012-10-19, 00:11:04,VALID,1010.27,VALID,0,VALID,104,VALID,0,VALID,22.9536,VALID,38,VALID,0.385938,
2012-10-19, 00:12:04,VALID,1010.26,VALID,0,VALID,104,VALID,0,VALID,22.9536,VALID,38,VALID,0.529688,
2012-10-19, 00:13:04,VALID,1010.24,VALID,0,VALID,104,VALID,0,VALID,22.9536,VALID,38,VALID,0.173438,
2012-10-19, 00:14:04,VALID,1010.21,VALID,0,VALID,104,VALID,0,VALID,22.9731,VALID,38,VALID,0.410156,
2012-10-19, 00:15:04,VALID,1010.19,VALID,0,VALID,104,VALID,0,VALID,22.9536,VALID,37,VALID,0.296094,
2012-10-19, 00:16:04,VALID,1010.19,VALID,0,VALID,104,VALID,0,VALID,22.9714,VALID,38,VALID,0.287109,
2012-10-19, 00:17:04,VALID,1010.17,VALID,0,VALID,104,VALID,0,VALID,22.9324,VALID,38,VALID,0.371484,
2012-10-19, 00:18:04,VALID,1010.11,VALID,0,VALID,104,VALID,0,VALID,22.9129,VALID,38,VALID,0,
2012-10-19, 00:19:04,VALID,1010.11,VALID,0,VALID,104,VALID,0,VALID,22.9342,VALID,38,VALID,0.271484,
2012-10-19, 00:20:04,VALID,1010.08,VALID,0,VALID,104,VALID,0,VALID,22.9342,VALID,38,VALID,0.161719,
2012-10-19, 00:21:04,VALID,1010.08,VALID,0,VALID,104,VALID,0,VALID,22.9147,VALID,38,VALID,0.059375,
2012-10-19, 00:22:04,VALID,1010.05,VALID,0,VALID,104,VALID,0,VALID,22.9129,VALID,37,VALID,0,
2012-10-19, 00:23:04,VALID,1010.04,VALID,0,VALID,104,VALID,0,VALID,22.9536,VALID,38,VALID,0.059375,
2012-10-19, 00:24:04,VALID,1010.04,VALID,0,VALID,104,VALID,0,VALID,22.9731,VALID,38,VALID,0,
2012-10-19, 00:25:04,VALID,1010.02,VALID,0,VALID,104,VALID,0.112112,VALID,22.9536,VALID,38,VALID,0,
2012-10-19, 00:26:04,VALID,1009.98,VALID,0,VALID,104,VALID,0,VALID,22.9536,VALID,38,VALID,0,
2012-10-19, 00:27:04,VALID,1009.96,VALID,0,VALID,104,VALID,0,VALID,22.9519,VALID,38,VALID,0,
2012-10-19, 00:28:04,VALID,1009.92,VALID,0,VALID,104,VALID,0,VALID,22.9714,VALID,38,VALID,0.142188,
2012-10-19, 00:29:04,VALID,1009.91,VALID,0,VALID,104,VALID,0,VALID,22.9731,VALID,38,VALID,0.10625,
2012-10-19, 00:30:04,VALID,1009.89,VALID,0,VALID,104,VALID,0,VALID,23.0121,VALID,37,VALID,0.0078125,
2012-10-19, 00:31:04,VALID,1009.85,VALID,0,VALID,104,VALID,0,VALID,23.0511,VALID,38,VALID,0.0496094,
2012-10-19, 00:32:04,VALID,1009.85,VALID,0,VALID,104,VALID,0,VALID,23.0103,VALID,38,VALID,0.158203,
2012-10-19, 00:33:04,VALID,1009.83,VALID,0,VALID,104,VALID,0,VALID,23.0316,VALID,38,VALID,0.0183594,
2012-10-19, 00:34:04,VALID,1009.83,VALID,0,VALID,104,VALID,0,VALID,23.0511,VALID,38,VALID,0.132031,
2012-10-19, 00:35:04,VALID,1009.83,VALID,0,VALID,104,VALID,0,VALID,23.0705,VALID,38,VALID,0.239844,
2012-10-19, 00:36:04,VALID,1009.83,VALID,0,VALID,104,VALID,0,VALID,23.0705,VALID,38,VALID,0.5125,
2012-10-19, 00:37:04,VALID,1009.8,VALID,0,VALID,104,VALID,0,VALID,23.0511,VALID,38,VALID,0.515234,
2012-10-19, 00:38:04,VALID,1009.81,VALID,0,VALID,104,VALID,0,VALID,23.0316,VALID,38,VALID,0.459375,
2012-10-19, 00:39:04,VALID,1009.78,VALID,0,VALID,104,VALID,0,VALID,23.0316,VALID,38,VALID,0.289453,
2012-10-19, 00:40:04,VALID,1009.77,VALID,0,VALID,104,VALID,0,VALID,23.0705,VALID,38,VALID,0.441797,
2012-10-19, 00:41:04,VALID,1009.74,VALID,0,VALID,104,VALID,0,VALID,23.0316,VALID,38,VALID,0.512109,
2012-10-19, 00:42:04,VALID,1009.7,VALID,0,VALID,104,VALID,0,VALID,23.0511,VALID,38,VALID,0.399219,
2012-10-19, 00:43:04,VALID,1009.71,VALID,0,VALID,104,VALID,0,VALID,23.0316,VALID,38,VALID,0.464453,
2012-10-19, 00:44:04,VALID,1009.71,VALID,0,VALID,104,VALID,0,VALID,23.0316,VALID,38,VALID,0.541016,
2012-10-19, 00:45:04,VALID,1009.71,VALID,0,VALID,104,VALID,0,VALID,23.0511,VALID,38,VALID,0.415234,
2012-10-19, 00:46:04,VALID,1009.7,VALID,0,VALID,104,VALID,0,VALID,23.09,VALID,38,VALID,0.394531,
2012-10-19, 00:47:04,VALID,1009.71,VALID,0,VALID,104,VALID,0,VALID,23.09,VALID,115,VALID,0.798437,
2012-10-19, 00:48:04,VALID,1009.7,VALID,0,VALID,104,VALID,0,VALID,23.09,VALID,115,VALID,0.757813,
2012-10-19, 00:49:04,VALID,1009.69,VALID,0,VALID,104,VALID,0,VALID,23.0511,VALID,136,VALID,0.877734,
2012-10-19, 00:50:04,VALID,1009.7,VALID,0,VALID,104,VALID,0,VALID,23.0705,VALID,135,VALID,0.765234,
2012-10-19, 00:51:04,VALID,1009.7,VALID,0,VALID,104,VALID,0,VALID,23.0316,VALID,134,VALID,0.845312,
2012-10-19, 00:52:04,VALID,1009.7,VALID,0,VALID,104,VALID,0,VALID,22.9926,VALID,129,VALID,0.584766,
2012-10-19, 00:53:04,VALID,1009.69,VALID,0,VALID,104,VALID,0,VALID,23.0121,VALID,123,VALID,0.598047,
2012-10-19, 00:54:04,VALID,1009.65,VALID,0,VALID,104,VALID,0,VALID,23.0316,VALID,123,VALID,0.289063,
2012-10-19, 00:55:04,VALID,1009.63,VALID,0,VALID,104,VALID,0,VALID,23.0316,VALID,123,VALID,0.142188,
2012-10-19, 00:56:04,VALID,1009.62,VALID,0,VALID,104,VALID,0,VALID,23.0316,VALID,123,VALID,0,
2012-10-19, 00:57:04,VALID,1009.61,VALID,0,VALID,104,VALID,0,VALID,23.0298,VALID,123,VALID,0,
2012-10-19, 00:58:04,VALID,1009.62,VALID,0,VALID,104,VALID,0,VALID,23.0511,VALID,123,VALID,0.0460938,
2012-10-19, 00:59:04,VALID,1009.61,VALID,0,VALID,104,VALID,0,VALID,23.0511,VALID,123,VALID,0.341797,
2012-10-19, 01:00:04,VALID,1009.6,VALID,0,VALID,104,VALID,0,VALID,23.0705,VALID,123,VALID,0.5,
2012-10-19, 01:01:04,VALID,1009.58,VALID,0,VALID,104,VALID,0,VALID,23.0511,VALID,123,VALID,0.697656,
2012-10-19, 01:02:04,VALID,1009.57,VALID,0,VALID,104,VALID,0,VALID,23.0121,VALID,123,VALID,0.492578,
2012-10-19, 01:03:04,VALID,1009.58,VALID,0,VALID,104,VALID,0,VALID,23.0121,VALID,123,VALID,0.774609,
2012-10-19, 01:04:04,VALID,1009.56,VALID,0,VALID,104,VALID,0,VALID,23.0121,VALID,123,VALID,0.322266,
2012-10-19, 01:05:04,VALID,1009.53,VALID,0,VALID,104,VALID,0,VALID,23.0316,VALID,123,VALID,0.196875,
2012-10-19, 01:06:04,VALID,1009.53,VALID,0,VALID,104,VALID,0,VALID,23.0316,VALID,123,VALID,0.185937,
2012-10-19, 01:07:04,VALID,1009.52,VALID,0,VALID,104,VALID,0,VALID,22.9926,VALID,123,VALID,0.279297,
2012-10-19, 01:08:04,VALID,1009.5,VALID,0,VALID,104,VALID,0,VALID,22.9731,VALID,123,VALID,0.253516,
2012-10-19, 01:09:04,VALID,1009.48,VALID,0,VALID,104,VALID,0,VALID,22.9731,VALID,122,VALID,0.541016,
2012-10-19, 01:10:04,VALID,1009.46,VALID,0,VALID,104,VALID,0,VALID,22.9731,VALID,122,VALID,0.294531,
2012-10-19, 01:11:04,VALID,1009.41,VALID,0,VALID,104,VALID,0,VALID,22.9536,VALID,122,VALID,0.205469,
2012-10-19, 01:12:04,VALID,1009.4,VALID,0,VALID,104,VALID,0,VALID,22.9536,VALID,122,VALID,0.0234375,
2012-10-19, 01:13:04,VALID,1009.39,VALID,0,VALID,104,VALID,0,VALID,22.9731,VALID,122,VALID,0,
2012-10-19, 01:14:04,VALID,1009.41,VALID,0,VALID,104,VALID,0,VALID,22.9536,VALID,122,VALID,0.132031,
2012-10-19, 01:15:04,VALID,1009.4,VALID,0,VALID,104,VALID,0,VALID,22.9731,VALID,114,VALID,0.455078,
2012-10-19, 01:16:04,VALID,1009.39,VALID,0,VALID,104,VALID,0,VALID,22.9536,VALID,97,VALID,0.448438,
2012-10-19, 01:17:04,VALID,1009.38,VALID,0,VALID,104,VALID,0,VALID,22.9536,VALID,97,VALID,0.309375,
2012-10-19, 01:18:04,VALID,1009.43,VALID,0,VALID,104,VALID,0,VALID,22.9926,VALID,97,VALID,0.433984,
2012-10-19, 01:19:04,VALID,1009.44,VALID,0,VALID,104,VALID,0,VALID,22.9731,VALID,97,VALID,0.379687,
2012-10-19, 01:20:04,VALID,1009.48,VALID,0,VALID,104,VALID,0,VALID,22.9536,VALID,97,VALID,0.218359,
2012-10-19, 01:21:04,VALID,1009.49,VALID,0,VALID,104,VALID,0,VALID,22.9731,VALID,97,VALID,0.400781,
2012-10-19, 01:22:04,VALID,1009.52,VALID,0,VALID,104,VALID,0,VALID,22.9731,VALID,97,VALID,0.238281,
2012-10-19, 01:23:04,VALID,1009.5,VALID,0,VALID,104,VALID,0,VALID,22.9943,VALID,97,VALID,0.476563,
2012-10-19, 01:24:04,VALID,1009.52,VALID,0,VALID,104,VALID,0,VALID,22.9731,VALID,87,VALID,0.632813,
2012-10-19, 01:25:04,VALID,1009.55,VALID,0,VALID,104,VALID,0,VALID,22.9731,VALID,84,VALID,0.561328,
2012-10-19, 01:26:04,VALID,1009.56,VALID,0,VALID,104,VALID,0,VALID,22.9536,VALID,84,VALID,0.473047,
2012-10-19, 01:27:04,VALID,1009.59,VALID,0,VALID,104,VALID,0,VALID,22.9731,VALID,84,VALID,0.705078,
2012-10-19, 01:28:04,VALID,1009.61,VALID,0,VALID,104,VALID,0,VALID,22.9731,VALID,84,VALID,0.623438,
2012-10-19, 01:29:04,VALID,1009.65,VALID,0,VALID,104,VALID,0,VALID,22.9926,VALID,84,VALID,0.672266,
2012-10-19, 01:30:04,VALID,1009.68,VALID,0,VALID,104,VALID,0,VALID,22.9926,VALID,105,VALID,0.835938,
2012-10-19, 01:31:04,VALID,1009.68,VALID,0,VALID,104,VALID,0,VALID,23.0316,VALID,136,VALID,1.00117,
2012-10-19, 01:32:04,VALID,1009.72,VALID,0,VALID,104,VALID,0,VALID,22.9926,VALID,124,VALID,0.830078,
2012-10-19, 01:33:04,VALID,1009.7,VALID,0,VALID,104,VALID,0,VALID,22.9909,VALID,125,VALID,0.501953,
2012-10-19, 01:34:04,VALID,1009.7,VALID,0,VALID,104,VALID,0,VALID,22.9536,VALID,141,VALID,0.768359,
2012-10-19, 01:35:04,VALID,1009.71,VALID,0,VALID,104,VALID,0,VALID,22.9519,VALID,124,VALID,0.829297,
2012-10-19, 01:36:04,VALID,1009.7,VALID,0,VALID,104,VALID,0,VALID,22.9324,VALID,112,VALID,0.626172,
2012-10-19, 01:37:04,VALID,1009.7,VALID,0,VALID,104,VALID,0,VALID,22.9536,VALID,112,VALID,0.641016,
2012-10-19, 01:38:04,VALID,1009.68,VALID,0,VALID,104,VALID,0,VALID,22.9519,VALID,105,VALID,0.426953,
2012-10-19, 01:39:04,VALID,1009.65,VALID,0,VALID,104,VALID,0,VALID,22.9342,VALID,107,VALID,0.942969,
2012-10-19, 01:40:04,VALID,1009.66,VALID,0,VALID,104,VALID,0,VALID,22.9342,VALID,110,VALID,0.587891,
2012-10-19, 01:41:04,VALID,1009.65,VALID,0,VALID,104,VALID,0,VALID,22.9731,VALID,108,VALID,0.508984,
2012-10-19, 01:42:04,VALID,1009.67,VALID,0,VALID,104,VALID,0,VALID,22.9714,VALID,75,VALID,0.375,
2012-10-19, 01:43:04,VALID,1009.63,VALID,0,VALID,104,VALID,0,VALID,22.9926,VALID,76,VALID,0.533203,
2012-10-19, 01:44:04,VALID,1009.61,VALID,0,VALID,104,VALID,0,VALID,22.9731,VALID,73,VALID,0.547266,
2012-10-19, 01:45:04,VALID,1009.59,VALID,0,VALID,104,VALID,0,VALID,22.9731,VALID,53,VALID,0.532422,
2012-10-19, 01:46:04,VALID,1009.54,VALID,0,VALID,104,VALID,0,VALID,22.9731,VALID,79,VALID,0.414063,
2012-10-19, 01:47:04,VALID,1009.55,VALID,0,VALID,104,VALID,0,VALID,22.9731,VALID,79,VALID,0.408203,
2012-10-19, 01:48:04,VALID,1009.53,VALID,0,VALID,104,VALID,0,VALID,22.9731,VALID,61,VALID,0.510547,
2012-10-19, 01:49:04,VALID,1009.5,VALID,0,VALID,104,VALID,0,VALID,22.9324,VALID,61,VALID,0.685156,
2012-10-19, 01:50:04,VALID,1009.5,VALID,0,VALID,104,VALID,0,VALID,22.9536,VALID,61,VALID,0.0917969,
2012-10-19, 01:51:04,VALID,1009.5,VALID,0,VALID,104,VALID,0,VALID,22.9536,VALID,61,VALID,0.257813,
2012-10-19, 01:52:04,VALID,1009.5,VALID,0,VALID,104,VALID,0,VALID,22.9536,VALID,61,VALID,0.355859,
2012-10-19, 01:53:04,VALID,1009.47,VALID,0,VALID,104,VALID,0,VALID,22.9536,VALID,61,VALID,0.501953,
2012-10-19, 01:54:04,VALID,1009.47,VALID,0,VALID,104,VALID,0,VALID,22.9536,VALID,61,VALID,0.394531,
2012-10-19, 01:55:04,VALID,1009.48,VALID,0,VALID,104,VALID,0,VALID,22.9536,VALID,61,VALID,0.500781,
2012-10-19, 01:56:04,VALID,1009.46,VALID,0,VALID,104,VALID,0,VALID,22.9324,VALID,61,VALID,0.209766,
2012-10-19, 01:57:04,VALID,1009.49,VALID,0,VALID,104,VALID,0,VALID,22.9731,VALID,61,VALID,0.195313,
2012-10-19, 01:58:04,VALID,1009.54,VALID,0,VALID,104,VALID,0,VALID,22.9731,VALID,77,VALID,0.771484,
2012-10-19, 01:59:04,VALID,1009.63,VALID,0,VALID,104,VALID,0,VALID,22.9519,VALID,124,VALID,1.01797,
2012-10-19, 02:00:04,VALID,1009.71,VALID,0,VALID,104,VALID,0,VALID,23.0511,VALID,151,VALID,1.25195,
2012-10-19, 02:01:04,VALID,1009.73,VALID,0,VALID,104,VALID,0,VALID,23.0511,VALID,159,VALID,0.904297,
2012-10-19, 02:02:04,VALID,1009.68,VALID,0,VALID,104,VALID,0,VALID,23.0511,VALID,120,VALID,0.0101562,
2012-10-19, 02:03:04,VALID,1009.66,VALID,0,VALID,104,VALID,0,VALID,23.0316,VALID,64,VALID,0.45625,
2012-10-19, 02:04:04,VALID,1009.69,VALID,0,VALID,104,VALID,0,VALID,23.0316,VALID,86,VALID,0.6125,
2012-10-19, 02:05:04,VALID,1009.74,VALID,0,VALID,104,VALID,0,VALID,23.0121,VALID,139,VALID,1.59609,
2012-10-19, 02:06:04,VALID,1009.78,VALID,0,VALID,104,VALID,0,VALID,23.0316,VALID,131,VALID,1.21836,
2012-10-19, 02:07:04,VALID,1009.77,VALID,0,VALID,104,VALID,0,VALID,23.0511,VALID,108,VALID,1.01992,
2012-10-19, 02:08:04,VALID,1009.74,VALID,0,VALID,104,VALID,0,VALID,23.0511,VALID,146,VALID,0.764063,
2012-10-19, 02:09:04,VALID,1009.71,VALID,0,VALID,104,VALID,0,VALID,23.0103,VALID,123,VALID,0.9375,
2012-10-19, 02:10:04,VALID,1009.72,VALID,0,VALID,104,VALID,0,VALID,23.0316,VALID,124,VALID,1.14766,
2012-10-19, 02:11:04,VALID,1009.7,VALID,0,VALID,104,VALID,0,VALID,23.0316,VALID,118,VALID,0.994531,
2012-10-19, 02:12:04,VALID,1009.66,VALID,0,VALID,104,VALID,0,VALID,23.0511,VALID,123,VALID,0.670703,
2012-10-19, 02:13:04,VALID,1009.65,VALID,0,VALID,104,VALID,0,VALID,22.9926,VALID,88,VALID,0.830078,
2012-10-19, 02:14:04,VALID,1009.59,VALID,0,VALID,104,VALID,0,VALID,23.0316,VALID,79,VALID,1.15352,
2012-10-19, 02:15:04,VALID,1009.5,VALID,0,VALID,104,VALID,0,VALID,22.9909,VALID,82,VALID,1.21406,
2012-10-19, 02:16:04,VALID,1009.46,VALID,0,VALID,104,VALID,0,VALID,23.0121,VALID,77,VALID,0.739453,
2012-10-19, 02:17:04,VALID,1009.48,VALID,0,VALID,104,VALID,0,VALID,23.0121,VALID,84,VALID,0.804297,
2012-10-19, 02:18:04,VALID,1009.49,VALID,0,VALID,104,VALID,0,VALID,22.9909,VALID,120,VALID,1.34023,
2012-10-19, 02:19:04,VALID,1009.45,VALID,0,VALID,104,VALID,0,VALID,22.9909,VALID,120,VALID,1.15859,
2012-10-19, 02:20:04,VALID,1009.42,VALID,0,VALID,104,VALID,0,VALID,22.9926,VALID,127,VALID,1.28008,
2012-10-19, 02:21:04,VALID,1009.36,VALID,0,VALID,104,VALID,0,VALID,22.9714,VALID,101,VALID,0.570313,
2012-10-19, 02:22:04,VALID,1009.31,VALID,0,VALID,104,VALID,0,VALID,23.0316,VALID,76,VALID,0.839453,
2012-10-19, 02:23:04,VALID,1009.33,VALID,0,VALID,104,VALID,0,VALID,22.9519,VALID,105,VALID,0.941016,
2012-10-19, 02:24:04,VALID,1009.28,VALID,0,VALID,104,VALID,0,VALID,22.9909,VALID,76,VALID,0.485156,
2012-10-19, 02:25:04,VALID,1009.25,VALID,0,VALID,104,VALID,0,VALID,22.9714,VALID,135,VALID,0.660547,
2012-10-19, 02:26:04,VALID,1009.2,VALID,0,VALID,104,VALID,0,VALID,23.0121,VALID,135,VALID,0.233594,
2012-10-19, 02:27:04,VALID,1009.18,VALID,0,VALID,104,VALID,0,VALID,22.9909,VALID,132,VALID,0.544922,
2012-10-19, 02:28:04,VALID,1009.15,VALID,0,VALID,104,VALID,0,VALID,22.9714,VALID,131,VALID,0.388672,
2012-10-19, 02:29:04,VALID,1009.13,VALID,0,VALID,104,VALID,0,VALID,22.9926,VALID,131,VALID,0.264453,
2012-10-19, 02:30:04,VALID,1009.12,VALID,0,VALID,104,VALID,0,VALID,23.0121,VALID,131,VALID,0.290234,
2012-10-19, 02:31:04,VALID,1009.1,VALID,0,VALID,104,VALID,0,VALID,22.9731,VALID,75,VALID,0.791016,
2012-10-19, 02:32:04,VALID,1009.09,VALID,0,VALID,104,VALID,0,VALID,22.9926,VALID,77,VALID,0.686328,
2012-10-19, 02:33:04,VALID,1009.11,VALID,0,VALID,104,VALID,0,VALID,22.9926,VALID,85,VALID,0.469141,
2012-10-19, 02:34:04,VALID,1009.08,VALID,0,VALID,104,VALID,0.112112,VALID,22.9926,VALID,85,VALID,0.373047,
2012-10-19, 02:35:04,VALID,1009.06,VALID,0,VALID,104,VALID,0,VALID,22.9926,VALID,85,VALID,0.251953,
2012-10-19, 02:36:04,VALID,1009.04,VALID,0,VALID,104,VALID,0,VALID,22.9926,VALID,85,VALID,0.219141,
2012-10-19, 02:37:04,VALID,1009.06,VALID,0,VALID,104,VALID,0,VALID,22.9909,VALID,85,VALID,0.523438,
2012-10-19, 02:38:04,VALID,1009.06,VALID,0,VALID,104,VALID,0,VALID,23.0121,VALID,85,VALID,0.553906,
2012-10-19, 02:39:04,VALID,1009.07,VALID,0,VALID,104,VALID,0,VALID,23.0316,VALID,85,VALID,0.714063,
2012-10-19, 02:40:04,VALID,1009.04,VALID,0,VALID,104,VALID,0,VALID,23.0316,VALID,94,VALID,0.843359,
2012-10-19, 02:41:04,VALID,1009.05,VALID,0,VALID,104,VALID,0,VALID,23.0511,VALID,97,VALID,0.714844,
2012-10-19, 02:42:04,VALID,1009.04,VALID,0,VALID,104,VALID,0,VALID,23.0511,VALID,93,VALID,0.830078,
2012-10-19, 02:43:04,VALID,1009.03,VALID,0,VALID,104,VALID,0,VALID,23.0298,VALID,106,VALID,0.800391,
2012-10-19, 02:44:04,VALID,1009.04,VALID,0,VALID,104,VALID,0,VALID,23.0493,VALID,103,VALID,0.925,
2012-10-19, 02:45:04,VALID,1009.04,VALID,0,VALID,104,VALID,0,VALID,23.0511,VALID,109,VALID,0.742969,
2012-10-19, 02:46:04,VALID,1009.03,VALID,0,VALID,104,VALID,0,VALID,23.0511,VALID,122,VALID,0.935156,
2012-10-19, 02:47:04,VALID,1008.98,VALID,0,VALID,104,VALID,0,VALID,23.0316,VALID,128,VALID,0.536328,
2012-10-19, 02:48:04,VALID,1008.98,VALID,0,VALID,104,VALID,0,VALID,23.0511,VALID,110,VALID,0.546094,
2012-10-19, 02:49:04,VALID,1009,VALID,0,VALID,104,VALID,0,VALID,23.0511,VALID,111,VALID,0.532422,
2012-10-19, 02:50:04,VALID,1008.98,VALID,0,VALID,104,VALID,0,VALID,23.0298,VALID,116,VALID,0.446094,
2012-10-19, 02:51:04,VALID,1008.96,VALID,0,VALID,104,VALID,0,VALID,23.0316,VALID,116,VALID,0.398047,
2012-10-19, 02:52:04,VALID,1008.98,VALID,0,VALID,104,VALID,0,VALID,23.0298,VALID,116,VALID,0.410547,
2012-10-19, 02:53:04,VALID,1008.98,VALID,0,VALID,104,VALID,0,VALID,23.0316,VALID,122,VALID,0.580859,
2012-10-19, 02:54:04,VALID,1008.95,VALID,0,VALID,104,VALID,0,VALID,23.0103,VALID,122,VALID,0.566797,
2012-10-19, 02:55:04,VALID,1008.95,VALID,0,VALID,104,VALID,0,VALID,23.0103,VALID,122,VALID,0.750391,
2012-10-19, 02:56:04,VALID,1008.95,VALID,0,VALID,104,VALID,0,VALID,23.0121,VALID,122,VALID,0.669531,
2012-10-19, 02:57:04,VALID,1008.97,VALID,0,VALID,104,VALID,0,VALID,23.0121,VALID,121,VALID,0.482422,
2012-10-19, 02:58:04,VALID,1008.94,VALID,0,VALID,104,VALID,0,VALID,23.0121,VALID,121,VALID,0.790625,
2012-10-19, 02:59:04,VALID,1008.94,VALID,0,VALID,104,VALID,0,VALID,22.9926,VALID,113,VALID,0.699609,
2012-10-19, 03:00:04,VALID,1008.91,VALID,0,VALID,104,VALID,0,VALID,23.0121,VALID,106,VALID,0.454297,
2012-10-19, 03:01:04,VALID,1008.89,VALID,0,VALID,104,VALID,0,VALID,22.9926,VALID,101,VALID,0.332422,
2012-10-19, 03:02:04,VALID,1008.89,VALID,0,VALID,104,VALID,0,VALID,23.0121,VALID,101,VALID,0.257031,
2012-10-19, 03:03:04,VALID,1008.88,VALID,0,VALID,104,VALID,0,VALID,22.9926,VALID,101,VALID,0.090625,
2012-10-19, 03:04:04,VALID,1008.85,VALID,0,VALID,104,VALID,0,VALID,23.0333,VALID,101,VALID,0.0253906,
2012-10-19, 03:05:04,VALID,1008.89,VALID,0,VALID,104,VALID,0,VALID,23.0121,VALID,101,VALID,0.616016,
2012-10-19, 03:06:04,VALID,1008.89,VALID,0,VALID,104,VALID,0.112112,VALID,23.0121,VALID,101,VALID,0.452734,
2012-10-19, 03:07:04,VALID,1008.86,VALID,0,VALID,104,VALID,0,VALID,22.9731,VALID,101,VALID,0.523438,
2012-10-19, 03:08:04,VALID,1008.88,VALID,0,VALID,104,VALID,0,VALID,22.9926,VALID,101,VALID,0.686328,
2012-10-19, 03:09:04,VALID,1008.89,VALID,0,VALID,104,VALID,0,VALID,22.9714,VALID,101,VALID,0.698047,
2012-10-19, 03:10:04,VALID,1008.88,VALID,0,VALID,104,VALID,0,VALID,22.9926,VALID,98,VALID,0.663281,
2012-10-19, 03:11:04,VALID,1008.87,VALID,0,VALID,104,VALID,0,VALID,22.9731,VALID,85,VALID,0.834375,
2012-10-19, 03:12:04,VALID,1008.85,VALID,0,VALID,104,VALID,0,VALID,22.9926,VALID,85,VALID,0.807813,
2012-10-19, 03:13:04,VALID,1008.87,VALID,0,VALID,104,VALID,0,VALID,23.0121,VALID,86,VALID,0.724609,
2012-10-19, 03:14:04,VALID,1008.85,VALID,0,VALID,104,VALID,0,VALID,23.0121,VALID,86,VALID,0.283594,
2012-10-19, 03:15:04,VALID,1008.82,VALID,0,VALID,104,VALID,0,VALID,23.0121,VALID,85,VALID,0.61875,
2012-10-19, 03:16:04,VALID,1008.8,VALID,0,VALID,104,VALID,0,VALID,23.0121,VALID,94,VALID,0.410937,
2012-10-19, 03:17:04,VALID,1008.78,VALID,0,VALID,104,VALID,0,VALID,23.0121,VALID,94,VALID,0.435156,
2012-10-19, 03:18:04,VALID,1008.8,VALID,0,VALID,104,VALID,0,VALID,22.9909,VALID,83,VALID,0.817578,
2012-10-19, 03:19:04,VALID,1008.78,VALID,0,VALID,104,VALID,0,VALID,22.9909,VALID,83,VALID,0.492969,
2012-10-19, 03:20:04,VALID,1008.79,VALID,0,VALID,104,VALID,0,VALID,23.0121,VALID,83,VALID,0.345313,
2012-10-19, 03:21:04,VALID,1008.75,VALID,0,VALID,104,VALID,0,VALID,23.0121,VALID,83,VALID,0.372656,
2012-10-19, 03:22:04,VALID,1008.73,VALID,0,VALID,104,VALID,0,VALID,22.9926,VALID,63,VALID,0.555469,
2012-10-19, 03:23:04,VALID,1008.71,VALID,0,VALID,104,VALID,0,VALID,22.9926,VALID,63,VALID,0.555859,
2012-10-19, 03:24:04,VALID,1008.71,VALID,0,VALID,104,VALID,0,VALID,22.9731,VALID,62,VALID,0.428906,
2012-10-19, 03:25:04,VALID,1008.72,VALID,0,VALID,104,VALID,0,VALID,22.9519,VALID,63,VALID,0.300391,
2012-10-19, 03:26:04,VALID,1008.72,VALID,0,VALID,104,VALID,0,VALID,22.9926,VALID,62,VALID,0.203516,
2012-10-19, 03:27:04,VALID,1008.73,VALID,0,VALID,104,VALID,0,VALID,22.9536,VALID,62,VALID,0.401953,
2012-10-19, 03:28:04,VALID,1008.71,VALID,0,VALID,104,VALID,0,VALID,22.9536,VALID,63,VALID,0.544531,
2012-10-19, 03:29:04,VALID,1008.69,VALID,0,VALID,104,VALID,0,VALID,22.9147,VALID,63,VALID,0.615234,
2012-10-19, 03:30:04,VALID,1008.71,VALID,0,VALID,104,VALID,0,VALID,22.8935,VALID,63,VALID,0.559766,
2012-10-19, 03:31:04,VALID,1008.71,VALID,0,VALID,104,VALID,0,VALID,22.8935,VALID,73,VALID,0.791406,
2012-10-19, 03:32:04,VALID,1008.66,VALID,0,VALID,104,VALID,0,VALID,22.8952,VALID,73,VALID,0.856641,
2012-10-19, 03:33:04,VALID,1008.62,VALID,0,VALID,104,VALID,0,VALID,22.8368,VALID,78,VALID,0.978516,
2012-10-19, 03:34:04,VALID,1008.64,VALID,0,VALID,104,VALID,0,VALID,22.8155,VALID,69,VALID,0.758594,
2012-10-19, 03:35:04,VALID,1008.62,VALID,0,VALID,104,VALID,0.112112,VALID,22.835,VALID,65,VALID,0.780859,
2012-10-19, 03:36:04,VALID,1008.62,VALID,0,VALID,104,VALID,0,VALID,22.8155,VALID,80,VALID,0.737109,
2012-10-19, 03:37:04,VALID,1008.57,VALID,0,VALID,104,VALID,0,VALID,22.8368,VALID,83,VALID,0.223828,
2012-10-19, 03:38:04,VALID,1008.55,VALID,0,VALID,104,VALID,0,VALID,22.8368,VALID,82,VALID,0.0363281,
2012-10-19, 03:39:04,VALID,1008.54,VALID,0,VALID,104,VALID,0,VALID,22.8155,VALID,83,VALID,0.4,
2012-10-19, 03:40:04,VALID,1008.57,VALID,0,VALID,104,VALID,0,VALID,22.8562,VALID,83,VALID,0.593359,
2012-10-19, 03:41:04,VALID,1008.56,VALID,0,VALID,104,VALID,0,VALID,22.8562,VALID,83,VALID,0.608594,
2012-10-19, 03:42:04,VALID,1008.55,VALID,0,VALID,104,VALID,0,VALID,22.8368,VALID,82,VALID,0.624219,
2012-10-19, 03:43:04,VALID,1008.56,VALID,0,VALID,104,VALID,0,VALID,22.8562,VALID,82,VALID,0.576563,
2012-10-19, 03:44:04,VALID,1008.54,VALID,0,VALID,104,VALID,0,VALID,22.8155,VALID,82,VALID,0.237891,
2012-10-19, 03:45:04,VALID,1008.55,VALID,0,VALID,104,VALID,0,VALID,22.8155,VALID,82,VALID,0.0398437,
2012-10-19, 03:46:04,VALID,1008.55,VALID,0,VALID,104,VALID,0,VALID,22.8368,VALID,82,VALID,0,
2012-10-19, 03:47:04,VALID,1008.57,VALID,0,VALID,104,VALID,0,VALID,22.8155,VALID,82,VALID,0,
2012-10-19, 03:48:04,VALID,1008.56,VALID,0,VALID,104,VALID,0,VALID,22.8562,VALID,83,VALID,0,
2012-10-19, 03:49:04,VALID,1008.56,VALID,0,VALID,104,VALID,0,VALID,22.835,VALID,82,VALID,0,
2012-10-19, 03:50:04,VALID,1008.61,VALID,0,VALID,104,VALID,0.112112,VALID,22.8155,VALID,82,VALID,0.03125,
2012-10-19, 03:51:04,VALID,1008.61,VALID,0,VALID,104,VALID,0,VALID,22.8368,VALID,82,VALID,0.278125,
2012-10-19, 03:52:04,VALID,1008.6,VALID,0,VALID,104,VALID,0,VALID,22.8562,VALID,82,VALID,0.208203,
2012-10-19, 03:53:04,VALID,1008.61,VALID,0,VALID,104,VALID,0,VALID,22.8155,VALID,82,VALID,0.246484,
2012-10-19, 03:54:04,VALID,1008.62,VALID,0,VALID,104,VALID,0,VALID,22.8757,VALID,100,VALID,0.636719,